Time,TemperatureF,DewpointF,PressureIn,WindDirection,WindDirectionDegrees,WindSpeedMPH,WindSpeedGustMPH,Humidity,HourlyPrecipIn,Conditions,Clouds,dailyrainin,SoftwareType,DateUTC
2013-07-07 00:02:00,75.2,74.9,30.01,SE,143,3.0,9.0,99,0.00,,,0.00,Wunderground v.1.15,2013-07-07 05:02:00,
2013-07-07 00:08:00,75.3,75.3,30.01,SSE,167,12.0,12.0,100,0.00,,,0.00,Wunderground v.1.15,2013-07-07 05:08:00,
2013-07-07 00:14:00,75.1,74.8,30.01,SE,125,8.0,12.0,99,0.00,,,0.00,Wunderground v.1.15,2013-07-07 05:14:00,
2013-07-07 00:20:00,75.2,74.9,30.01,SE,143,6.0,8.0,99,0.00,,,0.00,Wunderground v.1.15,2013-07-07 05:20:00,
2013-07-07 00:26:00,75.4,75.4,30.01,SSE,155,3.0,8.0,100,0.00,,,0.00,Wunderground v.1.15,2013-07-07 05:26:00,
2013-07-07 00:31:00,75.4,75.4,30.01,ESE,110,3.0,5.0,100,0.00,,,0.00,Wunderground v.1.15,2013-07-07 05:31:00,
2013-07-07 00:37:00,75.5,75.5,30.01,ESE,122,2.0,7.0,100,0.00,,,0.00,Wunderground v.1.15,2013-07-07 05:37:00,
2013-07-07 00:43:00,75.4,75.1,30.01,SE,146,6.0,6.0,99,0.00,,,0.00,Wunderground v.1.15,2013-07-07 05:43:00,
2013-07-07 00:49:00,75.8,75.5,30.01,South,186,8.0,8.0,99,0.00,,,0.00,Wunderground v.1.15,2013-07-07 05:49:00,
2013-07-07 00:55:00,76.0,74.8,30.01,East,99,5.0,7.0,96,0.00,,,0.00,Wunderground v.1.15,2013-07-07 05:55:00,
2013-07-07 01:01:00,76.3,74.4,30.01,SSE,150,4.0,7.0,94,0.00,,,0.00,Wunderground v.1.15,2013-07-07 06:01:00,
2013-07-07 01:06:00,76.5,74.3,30.01,SE,132,4.0,7.0,93,0.00,,,0.00,Wunderground v.1.15,2013-07-07 06:06:00,
2013-07-07 01:12:00,76.6,74.4,30.01,SE,146,2.0,4.0,93,0.00,,,0.00,Wunderground v.1.15,2013-07-07 06:12:00,
2013-07-07 01:18:00,76.6,74.1,30.01,SE,128,2.0,4.0,92,0.00,,,0.00,Wunderground v.1.15,2013-07-07 06:18:00,
2013-07-07 01:24:00,76.6,74.4,30.01,SSE,153,4.0,4.0,93,0.00,,,0.00,Wunderground v.1.15,2013-07-07 06:24:00,
2013-07-07 01:30:00,76.7,74.5,30.00,SE,127,3.0,3.0,93,0.00,,,0.00,Wunderground v.1.15,2013-07-07 06:30:00,
2013-07-07 01:36:00,77.0,74.8,30.00,SSE,153,5.0,7.0,93,0.00,,,0.00,Wunderground v.1.15,2013-07-07 06:36:00,
2013-07-07 01:42:00,77.3,74.8,30.00,SE,145,5.0,7.0,92,0.00,,,0.00,Wunderground v.1.15,2013-07-07 06:42:00,
2013-07-07 01:47:00,77.3,74.5,29.99,SSE,158,6.0,10.0,91,0.00,,,0.00,Wunderground v.1.15,2013-07-07 06:47:00,
2013-07-07 01:50:00,77.4,74.6,29.99,SSE,155,8.0,8.0,91,0.00,,,0.00,Wunderground v.1.15,2013-07-07 06:50:00,
2013-07-07 01:56:00,77.5,74.7,29.99,SSE,155,6.0,9.0,91,0.00,,,0.00,Wunderground v.1.15,2013-07-07 06:56:00,
2013-07-07 02:01:00,77.5,74.3,29.99,SE,145,7.0,8.0,90,0.00,,,0.00,Wunderground v.1.15,2013-07-07 07:01:00,
2013-07-07 02:06:00,77.6,74.4,29.99,SSE,148,4.0,12.0,90,0.00,,,0.00,Wunderground v.1.15,2013-07-07 07:06:00,
2013-07-07 02:11:00,77.5,74.3,29.99,South,184,3.0,7.0,90,0.00,,,0.00,Wunderground v.1.15,2013-07-07 07:11:00,
2013-07-07 02:16:00,77.4,73.9,29.98,South,170,8.0,9.0,89,0.00,,,0.00,Wunderground v.1.15,2013-07-07 07:16:00,
2013-07-07 02:21:00,77.5,74.3,29.98,SSE,168,4.0,8.0,90,0.00,,,0.00,Wunderground v.1.15,2013-07-07 07:21:00,
2013-07-07 02:26:00,77.4,74.2,29.98,SSE,148,6.0,8.0,90,0.00,,,0.00,Wunderground v.1.15,2013-07-07 07:26:00,
2013-07-07 02:31:00,77.4,74.2,29.98,South,176,3.0,7.0,90,0.00,,,0.00,Wunderground v.1.15,2013-07-07 07:31:00,
2013-07-07 02:36:00,77.5,74.3,29.98,SSE,148,6.0,10.0,90,0.00,,,0.00,Wunderground v.1.15,2013-07-07 07:36:00,
2013-07-07 02:41:00,77.5,74.7,29.98,SSE,160,6.0,8.0,91,0.00,,,0.00,Wunderground v.1.15,2013-07-07 07:41:00,
2013-07-07 02:46:00,77.5,74.7,29.98,SE,129,6.0,10.0,91,0.00,,,0.00,Wunderground v.1.15,2013-07-07 07:46:00,
2013-07-07 02:51:00,77.5,74.7,29.98,SE,132,3.0,8.0,91,0.00,,,0.00,Wunderground v.1.15,2013-07-07 07:51:00,
2013-07-07 02:56:00,77.5,75.0,29.98,SE,138,4.0,8.0,92,0.00,,,0.00,Wunderground v.1.15,2013-07-07 07:56:00,
2013-07-07 03:02:00,77.5,74.7,29.98,SE,135,5.0,9.0,91,0.00,,,0.00,Wunderground v.1.15,2013-07-07 08:02:00,
2013-07-07 03:07:00,77.6,74.8,29.98,SE,126,2.0,9.0,91,0.00,,,0.00,Wunderground v.1.15,2013-07-07 08:07:00,
2013-07-07 03:12:00,77.6,74.8,29.98,SE,136,7.0,10.0,91,0.00,,,0.00,Wunderground v.1.15,2013-07-07 08:12:00,
2013-07-07 03:17:00,77.7,75.2,29.98,SE,135,7.0,10.0,92,0.00,,,0.00,Wunderground v.1.15,2013-07-07 08:17:00,
2013-07-07 03:22:00,77.7,74.9,29.98,SE,146,5.0,8.0,91,0.00,,,0.00,Wunderground v.1.15,2013-07-07 08:22:00,
2013-07-07 03:27:00,77.7,74.9,29.99,SSE,150,4.0,8.0,91,0.00,,,0.00,Wunderground v.1.15,2013-07-07 08:27:00,
2013-07-07 03:32:00,77.8,75.0,29.99,SSE,150,5.0,9.0,91,0.00,,,0.00,Wunderground v.1.15,2013-07-07 08:32:00,
2013-07-07 03:37:00,77.9,75.4,29.99,SE,129,3.0,9.0,92,0.00,,,0.00,Wunderground v.1.15,2013-07-07 08:37:00,
2013-07-07 03:42:00,77.9,75.4,29.99,ESE,110,4.0,8.0,92,0.00,,,0.00,Wunderground v.1.15,2013-07-07 08:42:00,
2013-07-07 03:47:00,77.9,75.4,29.99,ESE,117,5.0,9.0,92,0.00,,,0.00,Wunderground v.1.15,2013-07-07 08:47:00,
2013-07-07 03:52:00,77.9,75.7,30.00,SSE,154,6.0,8.0,93,0.00,,,0.00,Wunderground v.1.15,2013-07-07 08:52:00,
2013-07-07 03:57:00,77.8,75.6,30.00,SSE,152,7.0,9.0,93,0.00,,,0.00,Wunderground v.1.15,2013-07-07 08:57:00,
2013-07-07 04:02:00,77.6,75.4,30.00,SSE,148,9.0,11.0,93,0.00,,,0.00,Wunderground v.1.15,2013-07-07 09:02:00,
2013-07-07 04:07:00,77.5,75.3,30.00,South,172,8.0,12.0,93,0.00,,,0.01,Wunderground v.1.15,2013-07-07 09:07:00,
2013-07-07 04:12:00,77.5,75.3,30.00,South,174,5.0,11.0,93,0.00,,,0.01,Wunderground v.1.15,2013-07-07 09:12:00,
2013-07-07 04:17:00,77.5,75.3,30.00,SE,142,8.0,11.0,93,0.00,,,0.01,Wunderground v.1.15,2013-07-07 09:17:00,
2013-07-07 04:22:00,77.6,75.4,30.00,SE,136,7.0,10.0,93,0.00,,,0.01,Wunderground v.1.15,2013-07-07 09:22:00,
2013-07-07 04:27:00,77.7,75.5,30.00,SSE,160,9.0,10.0,93,0.00,,,0.01,Wunderground v.1.15,2013-07-07 09:27:00,
2013-07-07 04:32:00,77.7,75.5,30.00,SSE,155,5.0,7.0,93,0.00,,,0.01,Wunderground v.1.15,2013-07-07 09:32:00,
2013-07-07 04:37:00,77.7,75.5,30.00,SSE,150,8.0,9.0,93,0.00,,,0.01,Wunderground v.1.15,2013-07-07 09:37:00,
2013-07-07 04:42:00,77.7,75.2,30.00,SSE,155,8.0,9.0,92,0.00,,,0.01,Wunderground v.1.15,2013-07-07 09:42:00,
2013-07-07 04:47:00,77.9,75.4,30.00,SSE,162,3.0,9.0,92,0.00,,,0.01,Wunderground v.1.15,2013-07-07 09:47:00,
2013-07-07 04:52:00,77.9,75.7,30.00,SE,146,6.0,7.0,93,0.00,,,0.01,Wunderground v.1.15,2013-07-07 09:52:00,
2013-07-07 04:57:00,77.9,75.7,30.00,SSE,155,5.0,8.0,93,0.00,,,0.01,Wunderground v.1.15,2013-07-07 09:57:00,
2013-07-07 05:02:00,77.8,75.6,30.00,SSW,198,4.0,7.0,93,0.00,,,0.01,Wunderground v.1.15,2013-07-07 10:02:00,
2013-07-07 05:07:00,77.8,75.6,30.00,South,179,4.0,8.0,93,0.00,,,0.01,Wunderground v.1.15,2013-07-07 10:07:00,
2013-07-07 05:12:00,77.8,75.6,30.00,SSW,198,6.0,7.0,93,0.00,,,0.01,Wunderground v.1.15,2013-07-07 10:12:00,
2013-07-07 05:17:00,77.7,75.5,30.00,SSW,192,6.0,9.0,93,1.07,,,0.03,Wunderground v.1.15,2013-07-07 10:17:00,
2013-07-07 05:22:00,77.4,75.5,30.00,South,184,2.0,5.0,94,0.24,,,0.08,Wunderground v.1.15,2013-07-07 10:22:00,
2013-07-07 05:27:00,77.2,75.7,30.00,SE,134,2.0,5.0,95,0.55,,,0.13,Wunderground v.1.15,2013-07-07 10:27:00,
2013-07-07 05:32:00,77.2,75.7,30.00,SSE,164,4.0,6.0,95,0.10,,,0.13,Wunderground v.1.15,2013-07-07 10:32:00,
2013-07-07 05:37:00,77.4,75.9,30.00,SSE,158,4.0,8.0,95,0.05,,,0.13,Wunderground v.1.15,2013-07-07 10:37:00,
2013-07-07 05:42:00,77.4,75.9,30.01,SSE,160,6.0,7.0,95,0.04,,,0.13,Wunderground v.1.15,2013-07-07 10:42:00,
2013-07-07 05:47:00,77.4,75.9,30.00,SSE,150,6.0,8.0,95,0.04,,,0.14,Wunderground v.1.15,2013-07-07 10:47:00,
2013-07-07 05:52:00,77.3,75.8,30.01,SE,136,6.0,9.0,95,0.04,,,0.14,Wunderground v.1.15,2013-07-07 10:52:00,
2013-07-07 05:57:00,77.3,75.8,30.00,South,170,7.0,9.0,95,0.04,,,0.14,Wunderground v.1.15,2013-07-07 10:57:00,
2013-07-07 06:02:00,77.4,75.9,30.01,SE,128,7.0,10.0,95,0.04,,,0.15,Wunderground v.1.15,2013-07-07 11:02:00,
2013-07-07 06:07:00,77.4,75.9,30.01,SE,129,10.0,11.0,95,0.04,,,0.15,Wunderground v.1.15,2013-07-07 11:07:00,
2013-07-07 06:12:00,77.3,75.8,30.01,South,181,7.0,10.0,95,0.32,,,0.17,Wunderground v.1.15,2013-07-07 11:12:00,
2013-07-07 06:17:00,77.2,76.0,30.00,South,174,5.0,10.0,96,0.20,,,0.19,Wunderground v.1.15,2013-07-07 11:17:00,
2013-07-07 06:22:00,77.0,75.5,30.00,SSE,155,6.0,10.0,95,0.13,,,0.20,Wunderground v.1.15,2013-07-07 11:22:00,
2013-07-07 06:28:00,76.8,74.9,30.01,South,191,6.0,10.0,94,0.17,,,0.21,Wunderground v.1.15,2013-07-07 11:28:00,
2013-07-07 06:33:00,76.6,74.1,30.01,SSE,166,4.0,10.0,92,0.09,,,0.22,Wunderground v.1.15,2013-07-07 11:33:00,
2013-07-07 06:38:00,76.6,74.1,30.01,SSE,165,6.0,10.0,92,0.09,,,0.22,Wunderground v.1.15,2013-07-07 11:38:00,
2013-07-07 06:43:00,76.8,74.3,30.01,SE,134,4.0,9.0,92,0.05,,,0.22,Wunderground v.1.15,2013-07-07 11:43:00,
2013-07-07 06:48:00,76.7,74.2,30.01,SE,141,2.0,9.0,92,0.04,,,0.22,Wunderground v.1.15,2013-07-07 11:48:00,
2013-07-07 06:53:00,76.8,74.6,30.01,SE,136,1.0,4.0,93,0.00,,,0.22,Wunderground v.1.15,2013-07-07 11:53:00,
2013-07-07 06:58:00,76.9,74.7,30.01,SSE,148,3.0,6.0,93,0.00,,,0.22,Wunderground v.1.15,2013-07-07 11:58:00,
2013-07-07 07:03:00,77.0,74.8,30.01,SE,125,2.0,5.0,93,0.00,,,0.22,Wunderground v.1.15,2013-07-07 12:03:00,
2013-07-07 07:08:00,77.2,74.7,30.01,ESE,115,5.0,8.0,92,0.00,,,0.22,Wunderground v.1.15,2013-07-07 12:08:00,
2013-07-07 07:13:00,77.5,75.3,30.02,East,84,5.0,5.0,93,0.00,,,0.22,Wunderground v.1.15,2013-07-07 12:13:00,
2013-07-07 07:18:00,77.6,75.1,30.02,SE,138,2.0,5.0,92,0.00,,,0.22,Wunderground v.1.15,2013-07-07 12:18:00,
2013-07-07 07:23:00,77.7,75.2,30.02,SE,131,2.0,5.0,92,0.00,,,0.22,Wunderground v.1.15,2013-07-07 12:23:00,
2013-07-07 07:28:00,77.7,75.2,30.02,ESE,114,4.0,6.0,92,0.00,,,0.22,Wunderground v.1.15,2013-07-07 12:28:00,
2013-07-07 07:33:00,77.8,75.3,30.02,SE,129,3.0,6.0,92,0.00,,,0.22,Wunderground v.1.15,2013-07-07 12:33:00,
2013-07-07 07:38:00,77.9,75.4,30.03,SE,125,2.0,7.0,92,0.00,,,0.22,Wunderground v.1.15,2013-07-07 12:38:00,
2013-07-07 07:43:00,78.0,75.8,30.03,SE,134,2.0,5.0,93,0.00,,,0.22,Wunderground v.1.15,2013-07-07 12:43:00,
2013-07-07 07:48:00,78.1,76.2,30.03,SE,142,3.0,5.0,94,0.00,,,0.22,Wunderground v.1.15,2013-07-07 12:48:00,
2013-07-07 07:53:00,78.1,76.2,30.03,East,98,3.0,6.0,94,0.00,,,0.22,Wunderground v.1.15,2013-07-07 12:53:00,
2013-07-07 07:58:00,78.2,76.3,30.03,ESE,113,2.0,6.0,94,0.00,,,0.22,Wunderground v.1.15,2013-07-07 12:58:00,
2013-07-07 08:03:00,78.1,76.2,30.03,SSE,156,1.0,6.0,94,0.00,,,0.22,Wunderground v.1.15,2013-07-07 13:03:00,
2013-07-07 08:08:00,78.2,76.3,30.03,East,90,2.0,6.0,94,0.00,,,0.22,Wunderground v.1.15,2013-07-07 13:08:00,
2013-07-07 08:13:00,78.2,76.6,30.03,SE,136,2.0,4.0,95,0.00,,,0.22,Wunderground v.1.15,2013-07-07 13:13:00,
2013-07-07 08:18:00,78.3,76.7,30.03,East,89,2.0,4.0,95,0.00,,,0.22,Wunderground v.1.15,2013-07-07 13:18:00,
2013-07-07 08:23:00,78.2,76.6,30.04,East,79,2.0,4.0,95,0.00,,,0.22,Wunderground v.1.15,2013-07-07 13:23:00,
2013-07-07 08:28:00,78.2,76.6,30.04,SE,125,1.0,4.0,95,0.00,,,0.22,Wunderground v.1.15,2013-07-07 13:28:00,
2013-07-07 08:33:00,78.3,76.7,30.04,ESE,113,1.0,4.0,95,0.00,,,0.22,Wunderground v.1.15,2013-07-07 13:33:00,
2013-07-07 08:38:00,78.4,76.8,30.04,East,84,2.0,4.0,95,0.00,,,0.22,Wunderground v.1.15,2013-07-07 13:38:00,
2013-07-07 08:43:00,78.4,76.8,30.04,ENE,73,3.0,4.0,95,0.00,,,0.22,Wunderground v.1.15,2013-07-07 13:43:00,
2013-07-07 08:48:00,78.5,77.3,30.05,SE,131,0.0,4.0,96,0.00,,,0.22,Wunderground v.1.15,2013-07-07 13:48:00,
2013-07-07 08:53:00,78.6,77.4,30.05,SE,132,0.0,3.0,96,0.00,,,0.22,Wunderground v.1.15,2013-07-07 13:53:00,
2013-07-07 08:58:00,78.7,77.5,30.05,ESE,110,1.0,3.0,96,0.00,,,0.22,Wunderground v.1.15,2013-07-07 13:58:00,
2013-07-07 09:03:00,78.8,77.2,30.05,SE,125,1.0,3.0,95,0.00,,,0.22,Wunderground v.1.15,2013-07-07 14:03:00,
2013-07-07 09:08:00,79.0,77.4,30.05,SE,131,3.0,3.0,95,0.00,,,0.22,Wunderground v.1.15,2013-07-07 14:08:00,
2013-07-07 09:13:00,79.0,77.4,30.05,ESE,122,1.0,3.0,95,0.00,,,0.22,Wunderground v.1.15,2013-07-07 14:13:00,
2013-07-07 09:18:00,79.1,77.5,30.05,East,83,4.0,4.0,95,0.00,,,0.22,Wunderground v.1.15,2013-07-07 14:18:00,
2013-07-07 09:23:00,79.2,77.6,30.05,East,86,2.0,4.0,95,0.00,,,0.22,Wunderground v.1.15,2013-07-07 14:23:00,
2013-07-07 09:28:00,79.3,77.7,30.05,ESE,108,0.0,4.0,95,0.00,,,0.22,Wunderground v.1.15,2013-07-07 14:28:00,
2013-07-07 09:33:00,79.4,77.8,30.05,SE,146,1.0,3.0,95,0.00,,,0.22,Wunderground v.1.15,2013-07-07 14:33:00,
2013-07-07 09:38:00,79.5,77.9,30.05,SE,125,1.0,5.0,95,0.00,,,0.22,Wunderground v.1.15,2013-07-07 14:38:00,
2013-07-07 09:44:00,79.7,78.1,30.04,SSE,157,2.0,5.0,95,0.00,,,0.22,Wunderground v.1.15,2013-07-07 14:44:00,
2013-07-07 09:49:00,79.9,78.0,30.04,ESE,114,1.0,5.0,94,0.00,,,0.22,Wunderground v.1.15,2013-07-07 14:49:00,
2013-07-07 09:54:00,80.1,78.2,30.04,ESE,117,2.0,4.0,94,0.00,,,0.22,Wunderground v.1.15,2013-07-07 14:54:00,
2013-07-07 09:59:00,80.1,78.2,30.04,SE,131,2.0,4.0,94,0.00,,,0.22,Wunderground v.1.15,2013-07-07 14:59:00,
2013-07-07 10:04:00,80.3,78.1,30.04,ESE,108,2.0,4.0,93,0.00,,,0.22,Wunderground v.1.15,2013-07-07 15:04:00,
2013-07-07 10:09:00,80.7,78.5,30.04,ESE,104,2.0,4.0,93,0.00,,,0.22,Wunderground v.1.15,2013-07-07 15:09:00,
2013-07-07 10:14:00,80.8,77.9,30.05,SSE,158,4.0,6.0,91,0.00,,,0.22,Wunderground v.1.15,2013-07-07 15:14:00,
2013-07-07 10:19:00,80.8,78.3,30.05,SSE,167,4.0,6.0,92,0.00,,,0.22,Wunderground v.1.15,2013-07-07 15:19:00,
2013-07-07 10:24:00,80.8,77.9,30.05,South,174,4.0,6.0,91,0.00,,,0.22,Wunderground v.1.15,2013-07-07 15:24:00,
2013-07-07 10:29:00,80.9,77.7,30.05,South,169,4.0,6.0,90,0.00,,,0.22,Wunderground v.1.15,2013-07-07 15:29:00,
2013-07-07 10:34:00,80.9,77.7,30.05,SE,136,3.0,6.0,90,0.00,,,0.22,Wunderground v.1.15,2013-07-07 15:34:00,
2013-07-07 10:39:00,81.0,78.1,30.05,SSE,150,4.0,6.0,91,0.00,,,0.22,Wunderground v.1.15,2013-07-07 15:39:00,
2013-07-07 10:44:00,81.1,77.2,30.05,SSE,163,3.0,6.0,88,0.00,,,0.22,Wunderground v.1.15,2013-07-07 15:44:00,
2013-07-07 10:49:00,81.3,77.7,30.05,SSE,150,7.0,9.0,89,0.00,,,0.22,Wunderground v.1.15,2013-07-07 15:49:00,
2013-07-07 10:54:00,81.3,77.7,30.05,SSE,160,4.0,7.0,89,0.00,,,0.22,Wunderground v.1.15,2013-07-07 15:54:00,
2013-07-07 10:59:00,81.1,77.5,30.06,SE,143,3.0,8.0,89,0.00,,,0.22,Wunderground v.1.15,2013-07-07 15:59:00,
2013-07-07 11:04:00,81.2,77.6,30.06,SE,141,3.0,6.0,89,0.00,,,0.22,Wunderground v.1.15,2013-07-07 16:04:00,
2013-07-07 11:09:00,81.1,77.5,30.06,SSE,158,4.0,7.0,89,0.00,,,0.22,Wunderground v.1.15,2013-07-07 16:09:00,
2013-07-07 11:14:00,81.3,77.7,30.06,SE,136,4.0,6.0,89,0.00,,,0.22,Wunderground v.1.15,2013-07-07 16:14:00,
2013-07-07 11:19:00,81.4,77.5,30.06,SE,131,3.0,6.0,88,0.00,,,0.22,Wunderground v.1.15,2013-07-07 16:19:00,
2013-07-07 11:24:00,81.6,78.0,30.07,ESE,123,3.0,5.0,89,0.00,,,0.22,Wunderground v.1.15,2013-07-07 16:24:00,
2013-07-07 11:29:00,81.6,77.4,30.07,SSE,152,4.0,8.0,87,0.00,,,0.22,Wunderground v.1.15,2013-07-07 16:29:00,
2013-07-07 11:34:00,81.7,77.8,30.07,SE,136,5.0,6.0,88,0.00,,,0.22,Wunderground v.1.15,2013-07-07 16:34:00,
2013-07-07 11:39:00,81.9,78.3,30.07,SSE,148,6.0,7.0,89,0.00,,,0.22,Wunderground v.1.15,2013-07-07 16:39:00,
2013-07-07 11:44:00,82.1,77.8,30.06,SE,131,4.0,7.0,87,0.00,,,0.22,Wunderground v.1.15,2013-07-07 16:44:00,
2013-07-07 11:49:00,82.5,77.5,30.06,SSE,166,4.0,7.0,85,0.00,,,0.22,Wunderground v.1.15,2013-07-07 16:49:00,
2013-07-07 11:54:00,82.7,78.4,30.06,SSE,153,4.0,7.0,87,0.00,,,0.22,Wunderground v.1.15,2013-07-07 16:54:00,
2013-07-07 11:59:00,83.0,78.7,30.06,South,173,4.0,7.0,87,0.00,,,0.22,Wunderground v.1.15,2013-07-07 16:59:00,
2013-07-07 12:04:00,83.4,78.4,30.06,SSE,148,4.0,6.0,85,0.00,,,0.22,Wunderground v.1.15,2013-07-07 17:04:00,
2013-07-07 12:09:00,83.7,78.3,30.06,ESE,113,5.0,6.0,84,0.00,,,0.22,Wunderground v.1.15,2013-07-07 17:09:00,
2013-07-07 12:14:00,83.8,78.8,30.06,SE,134,4.0,6.0,85,0.00,,,0.22,Wunderground v.1.15,2013-07-07 17:14:00,
2013-07-07 12:19:00,84.1,79.1,30.06,SSE,155,2.0,4.0,85,0.00,,,0.22,Wunderground v.1.15,2013-07-07 17:19:00,
2013-07-07 12:24:00,84.5,79.1,30.06,SE,145,6.0,7.0,84,0.00,,,0.22,Wunderground v.1.15,2013-07-07 17:24:00,
2013-07-07 12:29:00,84.7,79.3,30.06,SE,134,4.0,8.0,84,0.00,,,0.22,Wunderground v.1.15,2013-07-07 17:29:00,
2013-07-07 12:34:00,84.8,79.1,30.06,SE,141,2.0,8.0,83,0.00,,,0.22,Wunderground v.1.15,2013-07-07 17:34:00,
2013-07-07 12:39:00,84.6,78.5,30.06,SSW,203,3.0,4.0,82,0.00,,,0.22,Wunderground v.1.15,2013-07-07 17:39:00,
2013-07-07 12:45:00,84.1,78.4,30.05,SE,128,5.0,8.0,83,0.00,,,0.22,Wunderground v.1.15,2013-07-07 17:45:00,
2013-07-07 12:50:00,84.1,78.4,30.06,SSW,199,3.0,5.0,83,0.00,,,0.22,Wunderground v.1.15,2013-07-07 17:50:00,
2013-07-07 12:55:00,84.5,78.8,30.06,SSW,210,3.0,7.0,83,0.00,,,0.22,Wunderground v.1.15,2013-07-07 17:55:00,
2013-07-07 13:00:00,84.5,78.8,30.06,SE,136,3.0,4.0,83,0.00,,,0.22,Wunderground v.1.15,2013-07-07 18:00:00,
2013-07-07 13:05:00,83.9,78.5,30.06,SE,136,3.0,7.0,84,0.00,,,0.22,Wunderground v.1.15,2013-07-07 18:05:00,
2013-07-07 13:10:00,83.6,78.2,30.06,SE,146,4.0,4.0,84,0.00,,,0.22,Wunderground v.1.15,2013-07-07 18:10:00,
2013-07-07 13:15:00,83.7,78.7,30.05,SE,131,4.0,7.0,85,0.00,,,0.22,Wunderground v.1.15,2013-07-07 18:15:00,
2013-07-07 13:20:00,83.8,78.4,30.05,SSE,155,3.0,4.0,84,0.00,,,0.22,Wunderground v.1.15,2013-07-07 18:20:00,
2013-07-07 13:25:00,84.1,78.7,30.06,SE,126,2.0,6.0,84,0.00,,,0.22,Wunderground v.1.15,2013-07-07 18:25:00,
2013-07-07 13:30:00,84.2,78.8,30.06,SSE,158,5.0,5.0,84,0.00,,,0.22,Wunderground v.1.15,2013-07-07 18:30:00,
2013-07-07 13:35:00,84.1,78.4,30.06,SSE,148,3.0,8.0,83,0.00,,,0.22,Wunderground v.1.15,2013-07-07 18:35:00,
2013-07-07 13:40:00,84.1,78.7,30.06,SSE,167,4.0,5.0,84,0.00,,,0.22,Wunderground v.1.15,2013-07-07 18:40:00,
2013-07-07 13:45:00,83.9,78.2,30.05,SSE,155,6.0,9.0,83,0.00,,,0.22,Wunderground v.1.15,2013-07-07 18:45:00,
2013-07-07 13:50:00,83.5,78.2,30.05,SE,138,4.0,8.0,84,0.00,,,0.22,Wunderground v.1.15,2013-07-07 18:50:00,
2013-07-07 13:55:00,83.1,77.8,30.05,SSE,148,6.0,11.0,84,0.00,,,0.22,Wunderground v.1.15,2013-07-07 18:55:00,
2013-07-07 14:00:00,82.8,77.5,30.05,SSE,159,6.0,7.0,84,0.00,,,0.22,Wunderground v.1.15,2013-07-07 19:00:00,
2013-07-07 14:05:00,82.8,77.8,30.05,SSE,152,6.0,11.0,85,0.00,,,0.22,Wunderground v.1.15,2013-07-07 19:05:00,
2013-07-07 14:10:00,83.0,77.7,30.05,SE,135,9.0,9.0,84,0.00,,,0.22,Wunderground v.1.15,2013-07-07 19:10:00,
2013-07-07 14:15:00,83.1,77.8,30.05,South,181,5.0,10.0,84,0.00,,,0.22,Wunderground v.1.15,2013-07-07 19:15:00,
2013-07-07 14:20:00,82.9,77.6,30.05,SSE,153,6.0,8.0,84,0.00,,,0.22,Wunderground v.1.15,2013-07-07 19:20:00,
2013-07-07 14:25:00,82.6,77.6,30.05,South,178,7.0,12.0,85,0.00,,,0.22,Wunderground v.1.15,2013-07-07 19:25:00,
2013-07-07 14:30:00,82.4,77.1,30.05,SE,146,5.0,9.0,84,0.00,,,0.22,Wunderground v.1.15,2013-07-07 19:30:00,
2013-07-07 14:35:00,82.2,76.5,30.05,SE,129,6.0,12.0,83,0.00,,,0.22,Wunderground v.1.15,2013-07-07 19:35:00,
2013-07-07 14:40:00,82.1,77.1,30.04,SE,146,6.0,7.0,85,0.00,,,0.22,Wunderground v.1.15,2013-07-07 19:40:00,
2013-07-07 14:45:00,82.0,76.7,30.04,SE,142,4.0,11.0,84,0.00,,,0.22,Wunderground v.1.15,2013-07-07 19:45:00,
2013-07-07 14:50:00,81.9,77.3,30.04,SE,127,5.0,6.0,86,0.00,,,0.22,Wunderground v.1.15,2013-07-07 19:50:00,
2013-07-07 14:55:00,81.7,77.1,30.04,SSE,148,4.0,8.0,86,0.00,,,0.22,Wunderground v.1.15,2013-07-07 19:55:00,
2013-07-07 15:00:00,81.6,77.0,30.04,ESE,120,4.0,7.0,86,0.00,,,0.22,Wunderground v.1.15,2013-07-07 20:00:00,
2013-07-07 15:05:00,81.6,77.0,30.04,ESE,120,4.0,8.0,86,0.00,,,0.22,Wunderground v.1.15,2013-07-07 20:05:00,
2013-07-07 15:10:00,81.6,77.4,30.04,SE,129,4.0,5.0,87,0.00,,,0.22,Wunderground v.1.15,2013-07-07 20:10:00,
2013-07-07 15:15:00,81.5,77.6,30.04,SSE,160,10.0,10.0,88,0.00,,,0.22,Wunderground v.1.15,2013-07-07 20:15:00,
2013-07-07 15:20:00,81.5,77.9,30.04,SSE,148,6.0,8.0,89,0.00,,,0.22,Wunderground v.1.15,2013-07-07 20:20:00,
2013-07-07 15:25:00,81.4,77.8,30.04,SSE,155,10.0,11.0,89,0.00,,,0.22,Wunderground v.1.15,2013-07-07 20:25:00,
2013-07-07 15:30:00,81.4,77.8,30.04,SE,132,8.0,8.0,89,0.00,,,0.22,Wunderground v.1.15,2013-07-07 20:30:00,
2013-07-07 15:35:00,81.4,77.5,30.04,SSE,148,8.0,13.0,88,0.00,,,0.22,Wunderground v.1.15,2013-07-07 20:35:00,
2013-07-07 15:40:00,81.3,77.7,30.04,SSE,150,9.0,10.0,89,0.00,,,0.22,Wunderground v.1.15,2013-07-07 20:40:00,
2013-07-07 15:45:00,81.3,77.7,30.04,South,172,10.0,12.0,89,0.00,,,0.22,Wunderground v.1.15,2013-07-07 20:45:00,
2013-07-07 15:50:00,81.2,78.0,30.04,SSE,150,6.0,10.0,90,0.00,,,0.22,Wunderground v.1.15,2013-07-07 20:50:00,
2013-07-07 15:55:00,81.1,77.5,30.04,SSE,166,8.0,12.0,89,0.00,,,0.22,Wunderground v.1.15,2013-07-07 20:55:00,
2013-07-07 16:00:00,80.9,77.4,30.04,SSE,150,9.0,10.0,89,0.00,,,0.22,Wunderground v.1.15,2013-07-07 21:00:00,
2013-07-07 16:05:00,80.8,77.6,30.04,SE,136,6.0,11.0,90,0.00,,,0.22,Wunderground v.1.15,2013-07-07 21:05:00,
2013-07-07 16:10:00,80.7,77.8,30.03,SSE,163,11.0,12.0,91,0.00,,,0.22,Wunderground v.1.15,2013-07-07 21:10:00,
2013-07-07 16:15:00,80.6,77.7,30.04,SSE,160,7.0,12.0,91,0.00,,,0.22,Wunderground v.1.15,2013-07-07 21:15:00,
2013-07-07 16:20:00,80.6,77.7,30.03,SSE,149,7.0,10.0,91,0.00,,,0.22,Wunderground v.1.15,2013-07-07 21:20:00,
2013-07-07 16:25:00,80.6,78.1,30.03,SSE,155,5.0,11.0,92,0.00,,,0.22,Wunderground v.1.15,2013-07-07 21:25:00,
2013-07-07 16:30:00,80.6,78.1,30.03,South,172,5.0,9.0,92,0.00,,,0.22,Wunderground v.1.15,2013-07-07 21:30:00,
2013-07-07 16:35:00,80.5,78.0,30.03,South,188,8.0,11.0,92,0.00,,,0.22,Wunderground v.1.15,2013-07-07 21:35:00,
2013-07-07 16:40:00,80.5,78.0,30.03,SSE,154,7.0,9.0,92,0.00,,,0.22,Wunderground v.1.15,2013-07-07 21:40:00,
2013-07-07 16:45:00,80.5,78.0,30.04,SSE,163,7.0,10.0,92,0.00,,,0.22,Wunderground v.1.15,2013-07-07 21:45:00,
2013-07-07 16:50:00,80.4,77.9,30.03,SE,138,7.0,8.0,92,0.00,,,0.22,Wunderground v.1.15,2013-07-07 21:50:00,
2013-07-07 16:55:00,80.3,77.8,30.03,SSW,194,6.0,9.0,92,0.00,,,0.22,Wunderground v.1.15,2013-07-07 21:55:00,
2013-07-07 17:00:00,80.3,77.8,30.03,SE,138,4.0,6.0,92,0.00,,,0.23,Wunderground v.1.15,2013-07-07 22:00:00,
2013-07-07 17:05:00,80.3,78.1,30.03,South,183,4.0,8.0,93,0.00,,,0.23,Wunderground v.1.15,2013-07-07 22:05:00,
2013-07-07 17:10:00,80.2,77.7,30.03,SSE,160,6.0,6.0,92,0.00,,,0.23,Wunderground v.1.15,2013-07-07 22:10:00,
2013-07-07 17:15:00,80.2,77.7,30.03,SSE,148,6.0,9.0,92,0.00,,,0.23,Wunderground v.1.15,2013-07-07 22:15:00,
2013-07-07 17:20:00,80.2,77.7,30.03,SSE,155,5.0,6.0,92,0.00,,,0.23,Wunderground v.1.15,2013-07-07 22:20:00,
2013-07-07 17:25:00,80.1,77.6,30.03,SE,142,6.0,9.0,92,0.00,,,0.24,Wunderground v.1.15,2013-07-07 22:25:00,
2013-07-07 17:30:00,80.1,77.9,30.03,SSW,207,7.0,7.0,93,0.00,,,0.24,Wunderground v.1.15,2013-07-07 22:30:00,
2013-07-07 17:35:00,80.1,77.9,30.03,SSE,155,3.0,7.0,93,0.00,,,0.24,Wunderground v.1.15,2013-07-07 22:35:00,
2013-07-07 17:40:00,80.1,77.9,30.03,SSE,158,4.0,6.0,93,0.04,,,0.25,Wunderground v.1.15,2013-07-07 22:40:00,
2013-07-07 17:45:00,80.0,77.8,30.03,SSE,158,4.0,6.0,93,0.04,,,0.25,Wunderground v.1.15,2013-07-07 22:45:00,
2013-07-07 17:50:00,80.0,77.8,30.03,SSE,155,4.0,6.0,93,0.04,,,0.25,Wunderground v.1.15,2013-07-07 22:50:00,
2013-07-07 17:55:00,79.9,77.7,30.03,SSE,160,5.0,6.0,93,0.04,,,0.26,Wunderground v.1.15,2013-07-07 22:55:00,
2013-07-07 18:00:00,80.0,78.1,30.03,SSE,150,3.0,4.0,94,0.04,,,0.26,Wunderground v.1.15,2013-07-07 23:00:00,
2013-07-07 18:05:00,79.9,77.7,30.03,SSE,162,3.0,5.0,93,0.04,,,0.26,Wunderground v.1.15,2013-07-07 23:05:00,
2013-07-07 18:10:00,80.0,78.1,30.03,South,187,2.0,3.0,94,0.04,,,0.26,Wunderground v.1.15,2013-07-07 23:10:00,
2013-07-07 18:15:00,80.0,78.1,30.04,South,190,1.0,4.0,94,0.00,,,0.26,Wunderground v.1.15,2013-07-07 23:15:00,
2013-07-07 18:20:00,79.9,77.7,30.04,South,184,3.0,3.0,93,0.00,,,0.26,Wunderground v.1.15,2013-07-07 23:20:00,
2013-07-07 18:25:00,79.9,77.7,30.04,SSW,201,1.0,4.0,93,0.00,,,0.26,Wunderground v.1.15,2013-07-07 23:25:00,
2013-07-07 18:30:00,79.7,77.2,30.04,SSW,204,0.0,2.0,92,0.00,,,0.26,Wunderground v.1.15,2013-07-07 23:30:00,
2013-07-07 18:35:00,79.5,76.6,30.04,SSW,203,0.0,4.0,91,0.00,,,0.26,Wunderground v.1.15,2013-07-07 23:35:00,
2013-07-07 18:40:00,79.4,76.9,30.05,SW,224,2.0,2.0,92,0.00,,,0.26,Wunderground v.1.15,2013-07-07 23:40:00,
2013-07-07 18:45:00,78.8,76.3,30.05,NW,321,3.0,5.0,92,0.00,,,0.26,Wunderground v.1.15,2013-07-07 23:45:00,
2013-07-07 18:50:00,77.6,75.4,30.05,NW,307,4.0,5.0,93,0.00,,,0.26,Wunderground v.1.15,2013-07-07 23:50:00,
2013-07-07 18:55:00,76.9,75.0,30.06,NW,310,2.0,5.0,94,0.00,,,0.26,Wunderground v.1.15,2013-07-07 23:55:00,
2013-07-07 19:00:00,76.5,75.0,30.06,WNW,300,2.0,3.0,95,0.00,,,0.26,Wunderground v.1.15,2013-07-08 00:00:00,
2013-07-07 19:05:00,76.3,75.1,30.06,NW,305,2.0,4.0,96,0.00,,,0.26,Wunderground v.1.15,2013-07-08 00:05:00,
2013-07-07 19:10:00,76.2,75.0,30.06,NW,307,2.0,3.0,96,0.00,,,0.26,Wunderground v.1.15,2013-07-08 00:10:00,
2013-07-07 19:15:00,76.1,74.9,30.06,NW,320,1.0,3.0,96,0.00,,,0.26,Wunderground v.1.15,2013-07-08 00:15:00,
2013-07-07 19:20:00,76.1,75.2,30.06,NNW,345,0.0,1.0,97,0.00,,,0.26,Wunderground v.1.15,2013-07-08 00:20:00,
2013-07-07 19:25:00,76.1,75.2,30.06,NNW,344,0.0,1.0,97,0.00,,,0.26,Wunderground v.1.15,2013-07-08 00:25:00,
2013-07-07 19:30:00,76.0,75.1,30.06,NNW,344,1.0,1.0,97,0.00,,,0.26,Wunderground v.1.15,2013-07-08 00:30:00,
2013-07-07 19:35:00,75.9,75.0,30.06,NNW,344,0.0,1.0,97,0.00,,,0.26,Wunderground v.1.15,2013-07-08 00:35:00,
2013-07-07 19:40:00,75.9,75.0,30.06,NNW,344,0.0,0.0,97,0.00,,,0.26,Wunderground v.1.15,2013-07-08 00:40:00,
2013-07-07 19:45:00,75.9,75.0,30.07,NNW,345,0.0,1.0,97,0.00,,,0.26,Wunderground v.1.15,2013-07-08 00:45:00,
2013-07-07 19:50:00,75.9,75.3,30.07,NNW,338,1.0,1.0,98,0.00,,,0.26,Wunderground v.1.15,2013-07-08 00:50:00,
2013-07-07 19:55:00,75.9,75.3,30.07,NNW,333,1.0,2.0,98,0.00,,,0.26,Wunderground v.1.15,2013-07-08 00:55:00,
2013-07-07 20:00:00,75.8,75.2,30.07,NNW,342,0.0,3.0,98,0.00,,,0.26,Wunderground v.1.15,2013-07-08 01:00:00,
2013-07-07 20:05:00,75.7,75.1,30.06,NNW,342,0.0,3.0,98,0.00,,,0.26,Wunderground v.1.15,2013-07-08 01:05:00,
2013-07-07 20:10:00,75.6,75.0,30.07,NNW,342,0.0,1.0,98,0.00,,,0.26,Wunderground v.1.15,2013-07-08 01:10:00,
2013-07-07 20:15:00,75.5,74.9,30.07,NNW,338,2.0,2.0,98,0.00,,,0.26,Wunderground v.1.15,2013-07-08 01:15:00,
2013-07-07 20:20:00,75.4,74.8,30.07,NNW,330,0.0,1.0,98,0.00,,,0.26,Wunderground v.1.15,2013-07-08 01:20:00,
2013-07-07 20:25:00,75.3,74.7,30.07,NNW,330,0.0,1.0,98,0.00,,,0.26,Wunderground v.1.15,2013-07-08 01:25:00,
2013-07-07 20:30:00,75.3,74.7,30.07,NNW,330,0.0,0.0,98,0.00,,,0.26,Wunderground v.1.15,2013-07-08 01:30:00,
2013-07-07 20:35:00,75.3,74.7,30.07,NNW,330,0.0,1.0,98,0.00,,,0.26,Wunderground v.1.15,2013-07-08 01:35:00,
2013-07-07 20:40:00,75.3,74.7,30.07,NW,309,1.0,2.0,98,0.00,,,0.26,Wunderground v.1.15,2013-07-08 01:40:00,
2013-07-07 20:45:00,75.3,75.0,30.07,NW,309,1.0,2.0,99,0.00,,,0.26,Wunderground v.1.15,2013-07-08 01:45:00,
2013-07-07 20:50:00,75.3,75.0,30.07,NW,309,1.0,1.0,99,0.00,,,0.26,Wunderground v.1.15,2013-07-08 01:50:00,
2013-07-07 20:55:00,75.3,75.0,30.07,NNW,346,0.0,1.0,99,0.00,,,0.26,Wunderground v.1.15,2013-07-08 01:55:00,
2013-07-07 21:00:00,75.2,74.9,30.07,NNW,346,0.0,0.0,99,0.00,,,0.26,Wunderground v.1.15,2013-07-08 02:00:00,
2013-07-07 21:05:00,75.1,74.8,30.08,NNW,346,0.0,0.0,99,0.00,,,0.26,Wunderground v.1.15,2013-07-08 02:05:00,
2013-07-07 21:10:00,75.1,74.8,30.08,NNW,346,0.0,0.0,99,0.00,,,0.26,Wunderground v.1.15,2013-07-08 02:10:00,
2013-07-07 21:15:00,75.1,74.8,30.08,NNW,346,0.0,0.0,99,0.00,,,0.26,Wunderground v.1.15,2013-07-08 02:15:00,
2013-07-07 21:20:00,75.1,74.8,30.08,NNW,345,0.0,0.0,99,0.00,,,0.26,Wunderground v.1.15,2013-07-08 02:20:00,
2013-07-07 21:25:00,75.1,74.8,30.08,NNW,346,0.0,0.0,99,0.00,,,0.26,Wunderground v.1.15,2013-07-08 02:25:00,
2013-07-07 21:30:00,75.2,74.9,30.08,North,1,0.0,0.0,99,0.00,,,0.26,Wunderground v.1.15,2013-07-08 02:30:00,
2013-07-07 21:35:00,75.2,74.9,30.08,North,6,0.0,0.0,99,0.00,,,0.26,Wunderground v.1.15,2013-07-08 02:35:00,
2013-07-07 21:40:00,75.2,74.9,30.08,North,6,0.0,0.0,99,0.00,,,0.26,Wunderground v.1.15,2013-07-08 02:40:00,
2013-07-07 21:45:00,75.1,74.8,30.08,North,358,0.0,0.0,99,0.00,,,0.26,Wunderground v.1.15,2013-07-08 02:45:00,
2013-07-07 21:50:00,75.1,74.8,30.08,North,360,0.0,0.0,99,0.00,,,0.26,Wunderground v.1.15,2013-07-08 02:50:00,
2013-07-07 21:55:00,75.0,74.7,30.08,North,360,0.0,0.0,99,0.00,,,0.26,Wunderground v.1.15,2013-07-08 02:55:00,
2013-07-07 22:00:00,75.0,74.7,30.08,North,359,0.0,0.0,99,0.00,,,0.26,Wunderground v.1.15,2013-07-08 03:00:00,
2013-07-07 22:05:00,75.0,74.7,30.08,North,359,0.0,0.0,99,0.00,,,0.26,Wunderground v.1.15,2013-07-08 03:05:00,
2013-07-07 22:10:00,75.0,74.7,30.09,NNE,26,0.0,0.0,99,0.00,,,0.26,Wunderground v.1.15,2013-07-08 03:10:00,
2013-07-07 22:15:00,74.9,74.6,30.09,NNE,26,0.0,0.0,99,0.00,,,0.26,Wunderground v.1.15,2013-07-08 03:15:00,
2013-07-07 22:20:00,75.0,74.7,30.10,NNE,25,0.0,0.0,99,0.00,,,0.26,Wunderground v.1.15,2013-07-08 03:20:00,
2013-07-07 22:25:00,75.0,74.7,30.10,NNE,26,0.0,0.0,99,0.00,,,0.26,Wunderground v.1.15,2013-07-08 03:25:00,
2013-07-07 22:30:00,75.1,74.8,30.10,NNE,26,0.0,0.0,99,0.00,,,0.26,Wunderground v.1.15,2013-07-08 03:30:00,
2013-07-07 22:35:00,75.1,74.8,30.10,NNE,26,0.0,0.0,99,0.00,,,0.26,Wunderground v.1.15,2013-07-08 03:35:00,
2013-07-07 22:40:00,75.1,74.8,30.10,NNE,26,0.0,0.0,99,0.00,,,0.26,Wunderground v.1.15,2013-07-08 03:40:00,
2013-07-07 22:45:00,75.2,74.9,30.10,NNE,25,0.0,0.0,99,0.00,,,0.26,Wunderground v.1.15,2013-07-08 03:45:00,
2013-07-07 22:50:00,75.4,75.1,30.11,NNE,25,0.0,0.0,99,0.00,,,0.26,Wunderground v.1.15,2013-07-08 03:50:00,
2013-07-07 22:55:00,75.4,75.1,30.11,NNE,26,0.0,0.0,99,0.00,,,0.26,Wunderground v.1.15,2013-07-08 03:55:00,
2013-07-07 23:00:00,75.5,75.2,30.11,NNE,25,0.0,0.0,99,0.00,,,0.26,Wunderground v.1.15,2013-07-08 04:00:00,
2013-07-07 23:01:00,75.6,75.3,30.11,NNE,26,0.0,0.0,99,0.00,,,0.26,Wunderground v.1.15,2013-07-08 04:01:00,
2013-07-07 23:06:00,75.8,75.8,30.11,NNE,25,0.0,0.0,100,0.00,,,0.26,Wunderground v.1.15,2013-07-08 04:06:00,
2013-07-07 23:11:00,76.1,76.1,30.11,SE,141,6.0,8.0,100,0.00,,,0.26,Wunderground v.1.15,2013-07-08 04:11:00,
2013-07-07 23:16:00,75.7,75.4,30.11,SSW,207,11.0,14.0,99,0.00,,,0.26,Wunderground v.1.15,2013-07-08 04:16:00,
2013-07-07 23:21:00,75.8,74.9,30.11,SSW,212,9.0,13.0,97,0.00,,,0.26,Wunderground v.1.15,2013-07-08 04:21:00,
2013-07-07 23:26:00,75.9,74.7,30.11,SSW,198,9.0,13.0,96,0.00,,,0.26,Wunderground v.1.15,2013-07-08 04:26:00,
2013-07-07 23:31:00,76.1,74.6,30.11,SSE,160,10.0,13.0,95,0.00,,,0.26,Wunderground v.1.15,2013-07-08 04:31:00,
2013-07-07 23:36:00,76.3,74.4,30.11,South,190,10.0,13.0,94,0.00,,,0.26,Wunderground v.1.15,2013-07-08 04:36:00,
2013-07-07 23:41:00,76.4,74.2,30.11,South,188,9.0,11.0,93,0.00,,,0.26,Wunderground v.1.15,2013-07-08 04:41:00,
2013-07-07 23:46:00,76.6,74.1,30.11,SSW,197,8.0,11.0,92,0.00,,,0.26,Wunderground v.1.15,2013-07-08 04:46:00,
2013-07-07 23:51:00,76.7,74.2,30.11,South,174,5.0,9.0,92,0.00,,,0.26,Wunderground v.1.15,2013-07-08 04:51:00,
2013-07-07 23:56:00,76.8,74.3,30.11,SSE,166,9.0,10.0,92,0.00,,,0.00,Wunderground v.1.15,2013-07-08 04:56:00,